Skip Page Navigation
NASA JPL Caltech
NASA Logo - Jet Propulsion Laboratory + View the NASA Portal
+ Center for Near-Earth Object Studies
JPL Home Earth Solar System Stars & Galaxies Technology
JPL Solar System Dynamics
BODIES ORBITS EPHEMERIDES TOOLS PHYSICAL DATA DISCOVERY FAQ SITE MAP
IMPORTANT: The SSD Announcement email list is now available. Major changes are coming in the near future, including possible hostname and/or URL changes. To be notified of such changes, subscribe to this email list.

Please visit this page for more details.


JPL Small-Body Database Browser
Search: [ help ]  
233069 (2005 JJ67)
Classification: Outer Main-belt Asteroid          SPK-ID: 2233069
Ephemeris | Orbit Diagram | Orbital Elements | Mission Design | Physical Parameters | Discovery Circumstances | Close-Approach Data ]

[ show orbit diagram ]
Orbital Elements at Epoch 2458600.5 (2019-Apr-27.0) TDB
Reference: JPL 13 (heliocentric ecliptic J2000)
 Element Value Uncertainty (1-sigma)   Units 
e .02566533648783978 5.4486e-08  
a 3.3292792553916 4.6338e-08 au
q 3.24383218303999 1.7933e-07 au
i 14.113370352609 5.6763e-06 deg
node 113.0240090786102 2.3989e-05 deg
peri 98.91678706850904 0.00012953 deg
M 120.5696805924176 0.00012955 deg
tp 2457857.379275007460
(2017-Apr-13.87927501)
0.00079319 TDB
period 2218.828644837087
6.07
4.6323e-05
1.268e-07
d
yr
n .1622477701636272 3.3873e-09 deg/d
Q 3.41472632774321 4.7527e-08 au
  Orbit Determination Parameters
   # obs. used (total)      306  
   data-arc span      7119 days (19.49 yr)  
   first obs. used      2000-05-04  
   last obs. used      2019-10-31  
   planetary ephem.      DE431  
   SB-pert. ephem.      SB431-N16  
   condition code      0  
   norm. resid. RMS      .58735  
   source      ORB  
   producer      Otto Matic  
   solution date      2019-Nov-08 01:33:24  

Additional Information
 Earth MOID = 2.26724 au 
 Jupiter MOID = 1.73568 au 
 T_jup = 3.114 
[ hide covariance matrix ]
Orbital Elements at Epoch 2457426.5 (2016-Feb-08.0) TDB
Reference: JPL 13 (heliocentric ecliptic J2000)
 Element Value Uncertainty (1-sigma)   Units 
e .02745256884089096 5.2409e-08  
q 3.240893969300278 1.7192e-07 au
tp 2457890.617430691659
(2017-May-17.11743069)
0.00077477 TDB
node 113.253286495491 2.3953e-05 deg
peri 104.364439125702 0.00012636 deg
i 14.11985540371798 5.6842e-06 deg
  Orbit Determination Parameters
   # obs. used (total)      306  
   data-arc span      7119 days (19.49 yr)  
   first obs. used      2000-05-04  
   last obs. used      2019-10-31  
   planetary ephem.      DE431  
   SB-pert. ephem.      SB431-N16  
   condition code      0  
   norm. resid. RMS      .58735  
   source      ORB  
   producer      Otto Matic  
   solution date      2019-Nov-08 01:33:24  

Additional Information
 Jupiter MOID = 1.73568 au 
 T_jup = 3.114 
Orbit Covariance (6×6)
  e q tp node peri i
e 2.746678679090379E-15 -8.711036176711748E-15 -1.278618450874314E-11 3.051565009975939E-15 -2.003969142999032E-12 1.56609038351852E-15
q -8.711036176711748E-15 2.955691613724241E-14 5.288474344902997E-11 -5.718371952697509E-15 8.274639836968651E-12 -1.006627145304264E-15
tp -1.278618450874314E-11 5.288474344902997E-11 6.002684856201996E-7 -1.489436537639705E-10 9.618011646737507E-8 -3.138913010906737E-11
node 3.051565009975939E-15 -5.718371952697509E-15 -1.489436537639705E-10 5.737372627389557E-10 -5.801804162077785E-10 4.396744699296199E-11
peri -2.003969142999032E-12 8.274639836968651E-12 9.618011646737507E-8 -5.801804162077785E-10 1.596796439288232E-8 -4.800549704189894E-11
i 1.56609038351852E-15 -1.006627145304264E-15 -3.138913010906737E-11 4.396744699296199E-11 -4.800549704189894E-11 3.23096191406427E-11

Ephemeris | Orbit Diagram | Orbital Elements | Mission Design | Physical Parameters | Discovery Circumstances | Close-Approach Data ]

Physical Parameter Table
Parameter Symbol Value Units Sigma Reference Notes
absolute magnitude H 14.9   n/a MPO454685  
diameter diameter 4.119 km 0.225 urn:nasa:pds:neowise_diameters_albedos::2.0[mainbelt] (http://adsabs.harvard.edu/abs/2011ApJ...741...68M)  
geometric albedo albedo 0.095   0.011 urn:nasa:pds:neowise_diameters_albedos::2.0[mainbelt] (http://adsabs.harvard.edu/abs/2011ApJ...741...68M)  

233069 (2005 JJ67)          Discovered 2005-May-04 by CSS at Catalina
Reference: 20100228/Numbers.arcLast Updated: 2010-03-03

[ show close-approach data ]
Ephemeris | Orbit Diagram | Orbital Elements | Mission Design | Physical Parameters | Discovery Circumstances | Close-Approach Data ]
ABOUT SSD CREDITS/AWARDS PRIVACY/COPYRIGHT GLOSSARY LINKS
FirstGov 2020-Jan-26 02:37 UT
(server date/time)  
NASA Home Page
Site Manager:   Ryan S. Park
Webmaster  Alan B. Chamberlin